• Join FlightAware (Why Join?)
  • Login
  • US Flag 
08:58AM EDT


 

Airport Tracker/Info


-or-


 

Live Flight TrackerFlight Track Log ✈ DAL268 ✈ 19-May-2013 ✈ KJFK - LLBG / TLV

Flight Track Log - Related Links

Times and Time Zones

All times are in EDT time to prevent confusion due to time zone crossing. See the DAL268 flight status page for this flight to view local times or setup timezone preferences in your user account.

Time Position Orientation Groundspeed Altitude Reporting Facility
EDT Latitude Longitude Course Direction KTS MPH feet Rate Location/Type
11:59PM 40.6090 -73.7950 143° Southeast 181 208 900  Level FlightAware
12:00AM 40.5890 -73.8110 211° Southwest 190 219 1,700 1,800 Climbing FlightAware
12:00AM 40.5660 -73.8280 209° Southwest 188 216 2,600 1,620 Climbing FlightAware
12:00AM 40.5580 -73.8310 196° South 188 216 2,800 1,020 Climbing FlightAware
12:01AM 40.5340 -73.8140 152° Southeast 228 262 3,300 1,020 Climbing FlightAware
12:01AM 40.5300 -73.7930 104° East 244 281 3,600 720 Climbing FlightAware
12:02AM 40.5280 -73.7510 94° East 277 319 3,800 540 Climbing FlightAware
12:02AM 40.5400 -73.7030 72° East 290 334 4,100 900 Climbing FlightAware
12:02AM 40.5550 -73.6870 39° Northeast 302 348 4,500 2,100 Climbing FlightAware
12:03AM 40.5840 -73.6590 36° Northeast 310 357 5,500 2,400 Climbing FlightAware
12:03AM 40.6077 -73.6363 36° Northeast 314 361 6,300 2,640 Climbing FlightAware ADS-B
12:03AM 40.6252 -73.6188 37° Northeast 318 366 7,000 2,580 Climbing FlightAware ADS-B
12:04AM 40.6433 -73.6000 38° Northeast 321 369 7,600 2,460 Climbing FlightAware ADS-B
12:04AM 40.6655 -73.5782 37° Northeast 324 373 8,400 2,640 Climbing FlightAware ADS-B
12:04AM 40.6848 -73.5591 37° Northeast 327 376 9,100 2,520 Climbing FlightAware ADS-B
12:04AM 40.6920 -73.5525 35° Northeast 328 377 9,300 2,520 Climbing FlightAware ADS-B
12:04AM 40.7093 -73.5394 30° Northeast 329 379 9,900 1,800 Climbing FlightAware ADS-B
12:05AM 40.7562 -73.5108 25° Northeast 351 404 10,700 1,620 Climbing FlightAware ADS-B
12:06AM 40.8090 -73.4800 24° Northeast 367 422 11,800 2,160 Climbing FlightAware
12:06AM 40.8750 -73.4400 25° Northeast 371 427 13,600 2,460 Climbing FlightAware
12:07AM 40.9323 -73.4076 23° Northeast 378 435 15,000 2,280 Climbing FlightAware ADS-B
12:07AM 40.9824 -73.3777 24° Northeast 389 448 16,000 1,920 Climbing FlightAware ADS-B
12:08AM 41.0283 -73.3497 25° Northeast 395 455 16,900 2,040 Climbing FlightAware ADS-B
12:08AM 41.0529 -73.3299 31° Northeast 401 461 17,500 2,160 Climbing FlightAware ADS-B
12:08AM 41.0628 -73.3213 33° Northeast 403 464 17,700 1,800 Climbing FlightAware ADS-B
12:08AM 41.0728 -73.3105 39° Northeast 406 467 17,900 2,040 Climbing FlightAware ADS-B
12:09AM 41.1151 -73.2564 44° Northeast 411 473 19,000 1,860 Climbing FlightAware ADS-B
12:09AM 41.1620 -73.1933 45° Northeast 416 479 20,000 1,680 Climbing FlightAware ADS-B
12:10AM 41.2101 -73.1292 45° Northeast 421 484 21,000 1,620 Climbing FlightAware ADS-B
12:11AM 41.2537 -73.0717 45° Northeast 428 493 21,800 1,560 Climbing FlightAware ADS-B
12:11AM 41.3098 -72.9964 45° Northeast 432 497 22,900 1,560 Climbing FlightAware ADS-B
12:12AM 41.3531 -72.9377 45° Northeast 435 501 23,700 1,500 Climbing FlightAware ADS-B
12:13AM 41.4160 -72.8530 45° Northeast 439 505 24,900 780 Climbing FlightAware
12:13AM 41.4690 -72.7740 48° Northeast 439 505 24,900  Level FlightAware
12:14AM 41.5150 -72.7060 48° Northeast 439 505 24,900 1,020 Level FlightAware
12:15AM 41.6100 -72.5900 42° Northeast 488 562 26,400 1,380 Climbing FlightAware
12:15AM 41.6700 -72.4830 53° Northeast 499 574 27,000 420 Climbing FlightAware
12:16AM 41.7200 -72.3750 58° Northeast 498 573 27,000  Level FlightAware
12:17AM 41.7720 -72.2590 59° Northeast 497 572 27,000  Level FlightAware
12:18AM 41.8160 -72.1610 59° Northeast 496 571 27,000  Level FlightAware
12:18AM 41.8680 -72.0420 60° Northeast 27,000  Level FlightAware
12:19AM 41.9170 -71.9330 59° Northeast 498 573 27,000  Level FlightAware
12:20AM 41.9690 -71.8310 56° Northeast 494 568 27,000  Level FlightAware
12:20AM 42.0380 -71.7350 46° Northeast 491 565 27,000  Level FlightAware
12:21AM 42.1120 -71.6400 44° Northeast 492 566 27,000  Level FlightAware
12:22AM 42.1770 -71.5540 44° Northeast 492 566 27,000  Level FlightAware
12:22AM 42.2540 -71.4530 44° Northeast 492 566 27,000  Level FlightAware
12:23AM 42.3180 -71.3700 44° Northeast 490 564 27,000  Level FlightAware
12:24AM 42.3820 -71.2840 45° Northeast 490 564 27,000  Level FlightAware
12:25AM 42.4530 -71.1890 45° Northeast 490 564 27,000  Level FlightAware
12:25AM 42.5170 -71.1030 45° Northeast 490 564 27,000  Level FlightAware
12:26AM 42.5910 -71.0040 45° Northeast 488 562 27,000  Level FlightAware
12:27AM 42.6570 -70.9170 44° Northeast 490 564 27,000  Level FlightAware
12:27AM 42.7180 -70.8090 52° Northeast 500 575 27,000  Level FlightAware
12:28AM 42.7660 -70.7090 57° Northeast 501 577 27,000  Level FlightAware
12:29AM 42.8180 -70.5970 58° Northeast 500 575 27,000  Level FlightAware
12:29AM 42.8760 -70.4750 57° Northeast 500 575 27,000  Level FlightAware
12:30AM 42.9260 -70.3690 57° Northeast 500 575 27,000  Level FlightAware
12:31AM 42.9770 -70.2590 58° Northeast 500 575 27,000  Level FlightAware
12:32AM 43.0520 -70.0970 58° Northeast 492 566 27,000  Level FlightAware
12:33AM 43.1100 -69.9730 57° Northeast 493 567 27,000  Level FlightAware
12:33AM 43.1700 -69.8420 58° Northeast 494 568 27,000  Level FlightAware
12:34AM 43.2140 -69.7470 58° Northeast 492 566 27,000  Level FlightAware
12:35AM 43.2630 -69.6400 58° Northeast 495 570 27,000  Level FlightAware
12:36AM 43.3130 -69.5310 58° Northeast 495 570 27,000  Level FlightAware
12:36AM 43.3600 -69.4260 58° Northeast 491 565 27,000  Level FlightAware
12:37AM 43.4110 -69.3140 58° Northeast 491 565 27,000  Level FlightAware
12:38AM 43.4520 -69.2240 58° Northeast 491 565 27,000  Level FlightAware
12:38AM 43.4930 -69.1330 58° Northeast 491 565 27,000  Level FlightAware
12:40AM 43.6150 -68.8590 58° Northeast 494 568 27,000  Level FlightAware
12:40AM 43.6570 -68.7680 57° Northeast 494 568 27,000  Level FlightAware
12:41AM 43.6980 -68.6770 58° Northeast 494 568 27,000  Level FlightAware
12:42AM 43.7490 -68.5630 58° Northeast 494 568 27,000  Level FlightAware
12:43AM 43.7900 -68.4720 58° Northeast 494 568 27,000  Level FlightAware
12:43AM 43.8320 -68.3810 57° Northeast 494 568 27,000  Level FlightAware
12:44AM 43.9510 -68.0950 60° Northeast 497 572 27,000  Level FlightAware
12:45AM 44.0210 -67.9360 58° Northeast 496 571 27,000  Level FlightAware
12:47AM 44.1390 -67.6590 59° Northeast 490 564 27,000 300 Level FlightAware
12:48AM 44.2210 -67.4670 59° Northeast 488 562 28,000 900 Climbing FlightAware
12:49AM 44.3000 -67.2780 60° Northeast 485 558 29,200 1,200 Climbing FlightAware
12:51AM 44.3930 -67.0570 59° Northeast 487 560 31,000 720 Climbing FlightAware
12:52AM 44.4740 -66.8700 59° Northeast 480 552 31,000  Level FlightAware
12:53AM 44.5570 -66.6860 58° Northeast 476 548 31,000  Level FlightAware
12:54AM 44.6450 -66.4870 58° Northeast 477 549 31,000  Level FlightAware
12:55AM 44.7270 -66.2990 58° Northeast 483 556 31,000  Level FlightAware
12:57AM 44.8090 -66.1120 58° Northeast 495 570 31,000  Level FlightAware
12:58AM 44.9060 -65.8880 59° Northeast 499 574 31,000  Level FlightAware
12:59AM 44.9890 -65.6930 59° Northeast 497 572 31,000  Level FlightAware
01:00AM 45.0850 -65.4690 59° Northeast 487 560 31,000  Level FlightAware
01:01AM 45.1380 -65.3460 59° Northeast 484 557 31,000  Level FlightAware
01:02AM 45.1840 -65.2360 59° Northeast 482 555 31,000  Level FlightAware
01:03AM 45.2310 -65.1240 59° Northeast 480 552 31,000  Level FlightAware
01:03AM 45.2850 -64.9960 59° Northeast 485 558 31,000  Level FlightAware
01:04AM 45.3380 -64.8690 59° Northeast 487 560 31,000  Level FlightAware
01:05AM 45.3840 -64.7560 60° Northeast 489 563 31,000  Level FlightAware
01:05AM 45.4290 -64.6480 59° Northeast 489 563 31,000  Level FlightAware
01:06AM 45.4690 -64.5510 60° Northeast 489 563 31,000  Level FlightAware
01:07AM 45.5210 -64.4250 59° Northeast 489 563 31,000  Level FlightAware
01:07AM 45.5670 -64.3110 60° Northeast 492 566 31,000  Level FlightAware
01:08AM 45.6280 -64.1620 60° Northeast 495 570 31,000  Level FlightAware
01:09AM 45.6750 -64.0490 59° Northeast 495 570 31,000  Level FlightAware
01:10AM 45.7150 -63.9540 59° Northeast 495 570 31,000  Level FlightAware
01:10AM 45.7550 -63.8580 59° Northeast 495 570 31,000  Level FlightAware
01:11AM 45.7960 -63.7620 58° Northeast 495 570 31,000  Level FlightAware
01:12AM 45.8360 -63.6670 59° Northeast 495 570 31,000  Level FlightAware
01:12AM 45.8760 -63.5710 59° Northeast 495 570 31,000  Level FlightAware
01:13AM 45.9260 -63.4510 59° Northeast 495 570 31,000  Level FlightAware
01:14AM 45.9660 -63.3550 59° Northeast 495 570 31,000  Level FlightAware
01:15AM 46.0060 -63.2590 59° Northeast 495 570 31,000  Level FlightAware
01:15AM 46.0460 -63.1630 59° Northeast 495 570 31,000  Level FlightAware
01:16AM 46.1370 -62.8760 65° Northeast 489 563 31,000  Level FlightAware
01:17AM 46.1890 -62.7420 61° Northeast 489 563 31,000  Level FlightAware
01:17AM 46.2400 -62.6110 61° Northeast 488 562 31,000  Level FlightAware
01:18AM 46.2880 -62.4860 61° Northeast 486 559 31,000  Level FlightAware
01:19AM 46.3310 -62.3720 61° Northeast 484 557 31,000  Level FlightAware
01:20AM 46.3800 -62.2420 61° Northeast 485 558 31,000  Level FlightAware
01:20AM 46.4230 -62.1280 61° Northeast 484 557 31,000  Level FlightAware
01:21AM 46.4700 -61.9990 62° Northeast 482 555 31,000  Level FlightAware
01:22AM 46.5140 -61.8830 61° Northeast 480 552 31,000  Level FlightAware
01:22AM 46.5550 -61.7730 62° Northeast 479 551 31,000  Level FlightAware
01:23AM 46.6030 -61.6460 61° Northeast 477 549 31,000  Level FlightAware
01:24AM 46.6440 -61.5330 62° Northeast 475 547 31,000  Level FlightAware
01:24AM 46.6860 -61.4170 62° Northeast 476 548 31,000  Level FlightAware
01:25AM 46.7320 -61.2930 62° Northeast 477 549 31,000  Level FlightAware
01:26AM 46.7730 -61.1790 62° Northeast 477 549 31,000  Level FlightAware
01:27AM 46.8190 -61.0520 62° Northeast 474 545 31,000  Level FlightAware
01:27AM 46.8610 -60.9360 62° Northeast 472 543 31,000  Level FlightAware
01:28AM 46.9020 -60.8230 62° Northeast 469 540 31,000  Level FlightAware
01:29AM 46.9450 -60.7030 62° Northeast 465 535 31,000  Level FlightAware
01:29AM 46.9810 -60.6020 62° Northeast 469 540 31,000  Level FlightAware
01:30AM 47.0260 -60.4750 62° Northeast 468 539 31,000  Level FlightAware
01:31AM 47.0710 -60.3480 62° Northeast 469 540 31,000  Level FlightAware
01:31AM 47.1110 -60.2320 63° Northeast 472 543 31,000  Level FlightAware
01:32AM 47.1510 -60.1200 62° Northeast 476 548 31,000  Level FlightAware
01:33AM 47.1960 -59.9900 63° Northeast 478 550 31,000  Level FlightAware
01:34AM 47.2480 -59.8400 63° Northeast 480 552 31,000  Level FlightAware
01:34AM 47.2820 -59.7400 63° Northeast 480 552 31,000  Level FlightAware
01:35AM 47.3170 -59.6410 62° Northeast 480 552 31,000  Level FlightAware
01:36AM 47.3510 -59.5420 63° Northeast 480 552 31,000  Level FlightAware
01:37AM 47.3940 -59.4180 63° Northeast 480 552 31,000  Level FlightAware
01:37AM 47.4280 -59.3180 63° Northeast 480 552 31,000  Level FlightAware
01:38AM 47.4620 -59.2190 63° Northeast 480 552 31,000  Level FlightAware
01:39AM 47.5420 -58.9740 64° Northeast 487 560 31,000  Level FlightAware
01:39AM 47.5810 -58.8580 63° Northeast 486 559 31,000  Level FlightAware
01:40AM 47.6160 -58.7500 64° Northeast 486 559 31,000  Level FlightAware
01:41AM 47.6680 -58.5920 64° Northeast 485 558 31,000  Level FlightAware
01:41AM 47.7080 -58.4690 64° Northeast 487 560 31,000  Level FlightAware
01:42AM 47.7510 -58.3370 64° Northeast 485 558 31,000  Level FlightAware
01:43AM 47.7900 -58.2200 64° Northeast 483 556 31,000  Level FlightAware
01:44AM 47.8320 -58.0890 64° Northeast 480 552 31,000  Level FlightAware
01:44AM 47.8740 -57.9580 64° Northeast 479 551 31,000 180 Level FlightAware
01:45AM 47.9120 -57.8420 64° Northeast 481 554 31,300 840 Climbing FlightAware
01:46AM 47.9540 -57.7060 65° Northeast 482 555 32,200 1,020 Climbing FlightAware
01:46AM 47.9900 -57.5880 65° Northeast 486 559 32,800 540 Climbing FlightAware
01:47AM 48.0340 -57.4440 65° Northeast 493 567 33,000 120 Climbing FlightAware
01:48AM 48.0720 -57.3230 65° Northeast 492 566 33,000  Level FlightAware
01:48AM 48.1140 -57.1840 66° East 490 564 33,000  Level FlightAware
01:49AM 48.1520 -57.0610 65° Northeast 490 564 33,000  Level FlightAware
01:50AM 48.1890 -56.9370 66° East 490 564 33,000  Level FlightAware
01:51AM 48.2320 -56.7950 66° East 489 563 33,000  Level FlightAware
01:51AM 48.2660 -56.6810 66° East 488 562 33,000  Level FlightAware
01:52AM 48.3100 -56.5320 66° East 487 560 33,000  Level FlightAware
01:53AM 48.3460 -56.4090 66° East 488 562 33,000  Level FlightAware
01:53AM 48.3830 -56.2850 66° East 489 563 33,000  Level FlightAware
01:54AM 48.4240 -56.1450 66° East 489 563 33,000  Level FlightAware
01:55AM 48.4600 -56.0200 66° East 489 563 33,000  Level FlightAware
01:55AM 48.5010 -55.8820 66° East 491 565 33,000  Level FlightAware
01:56AM 48.5370 -55.7560 67° East 491 565 33,000  Level FlightAware
01:57AM 48.5730 -55.6270 67° East 492 566 33,000  Level FlightAware
01:58AM 48.6120 -55.4920 66° East 491 565 33,000  Level FlightAware
01:58AM 48.6490 -55.3620 67° East 492 566 33,000  Level FlightAware
01:59AM 48.6900 -55.2170 67° East 491 565 33,000  Level FlightAware
02:00AM 48.7250 -55.0900 67° East 491 565 33,000  Level FlightAware
02:00AM 48.7600 -54.9670 67° East 493 567 33,000  Level FlightAware
02:01AM 48.8000 -54.8230 67° East 494 568 33,000  Level FlightAware
02:02AM 48.8350 -54.6960 67° East 493 567 33,000  Level FlightAware
02:02AM 48.8700 -54.5650 68° East 491 565 33,000  Level FlightAware
02:03AM 48.9090 -54.4250 67° East 490 564 33,000  Level FlightAware
02:04AM 48.9440 -54.2940 68° East 489 563 33,000  Level FlightAware
02:05AM 48.9820 -54.1510 68° East 489 563 33,000  Level FlightAware
02:05AM 49.0170 -54.0240 67° East 490 564 33,000  Level FlightAware
02:06AM 49.0510 -53.8960 68° East 491 565 33,000  Level FlightAware
02:07AM 49.0890 -53.7510 68° East 494 568 33,000  Level FlightAware
02:07AM 49.1220 -53.6270 68° East 496 571 33,000  Level FlightAware
02:08AM 49.1610 -53.4740 69° East 498 573 33,000  Level FlightAware
02:09AM 49.1950 -53.3470 68° East 501 577 33,000  Level FlightAware
02:09AM 49.2330 -53.2010 68° East 503 579 33,000  Level FlightAware
02:10AM 49.2680 -53.0650 68° East 504 580 33,000  Level FlightAware
02:11AM 49.3060 -52.9160 69° East 505 581 33,000  Level FlightAware
02:12AM 49.3390 -52.7820 69° East 506 582 33,000  Level FlightAware
02:12AM 49.3780 -52.6280 69° East 506 582 33,000  Level FlightAware
02:13AM 49.4120 -52.4940 69° East 506 582 33,000  Level FlightAware
02:14AM 49.4440 -52.3630 69° East 506 582 33,000  Level FlightAware
02:14AM 49.4780 -52.2260 69° East 507 583 33,000  Level FlightAware
02:15AM 49.5070 -52.1110 69° East 507 583 33,000  Level FlightAware
02:16AM 49.5510 -51.9270 70° East 511 588 33,000  Level FlightAware
02:17AM 49.6000 -51.7290 69° East 513 590 33,000  Level FlightAware
02:17AM 49.6300 -51.6080 69° East 513 590 33,000  Level FlightAware
02:18AM 49.6590 -51.4920 69° East 513 590 33,000  Level FlightAware
02:19AM 49.6880 -51.3760 69° East 513 590 33,000  Level FlightAware
02:19AM 49.7160 -51.2590 70° East 513 590 33,000  Level FlightAware
02:20AM 49.7530 -51.1130 69° East 513 590 33,000  Level FlightAware
02:21AM 49.7810 -50.9970 69° East 513 590 33,000  Level FlightAware
02:22AM 49.8100 -50.8800 69° East 513 590 33,000  Level FlightAware
02:22AM 49.8390 -50.7630 69° East 513 590 33,000  Level FlightAware
02:23AM 49.8680 -50.6460 69° East 513 590 33,000  Level FlightAware
02:24AM 49.8970 -50.5300 69° East 513 590 33,000  Level FlightAware
02:24AM 49.9330 -50.3830 69° East 513 590 33,000  Level FlightAware
02:25AM 49.9620 -50.2660 69° East 513 590 33,000  Level FlightAware
02:26AM 50.0000 -50.0000 60° Northeast 552 635 33,000  Level ETMS Enhanced Traffic Management System
02:26AM 49.9910 -50.1490 69° East 513 590 33,000  Level FlightAware
02:26AM 50.0500 -49.7667 60° Northeast 530 610 33,000  Level Gander Center
02:26AM 50.0200 -50.0320 69° East 513 590 33,000  Level FlightAware
02:27AM 50.1167 -49.6000 58° Northeast 530 610 33,000  Level Gander Center
02:28AM 50.1833 -49.4000 62° Northeast 530 610 33,000  Level Gander Center
02:29AM 50.2500 -49.1667 66° East 540 621 33,000  Level Gander Center
02:30AM 50.3167 -48.9833 60° Northeast 540 621 33,000  Level Gander Center
02:31AM 50.4167 -48.7500 56° Northeast 550 633 33,000  Level Gander Center
02:33AM 50.5333 -48.3667 64° Northeast 550 633 33,000  Level Gander Center
02:34AM 50.6000 -48.1667 62° Northeast 550 633 33,000  Level Gander Center
02:36AM 50.7180 -47.8232 61° Northeast  Level FlightAware Approximate
02:43AM 51.1798 -46.4322 62° Northeast  Level FlightAware Approximate
02:44AM 51.2444 -46.2312 63° Northeast  Level FlightAware Approximate
02:45AM 51.3087 -46.0296 63° Northeast  Level FlightAware Approximate
02:46AM 51.3726 -45.8275 63° Northeast  Level FlightAware Approximate
02:47AM 51.4362 -45.6249 63° Northeast  Level FlightAware Approximate
02:48AM 51.4994 -45.4216 63° Northeast  Level FlightAware Approximate
02:49AM 51.5623 -45.2178 64° Northeast  Level FlightAware Approximate
02:50AM 51.6248 -45.0135 64° Northeast  Level FlightAware Approximate
02:51AM 51.6869 -44.8085 64° Northeast  Level FlightAware Approximate
02:52AM 51.7487 -44.6030 64° Northeast  Level FlightAware Approximate
02:53AM 51.8102 -44.3970 64° Northeast  Level FlightAware Approximate
02:54AM 51.8713 -44.1904 64° Northeast  Level FlightAware Approximate
02:55AM 51.9320 -43.9832 65° Northeast  Level FlightAware Approximate
02:56AM 51.9923 -43.7755 65° Northeast  Level FlightAware Approximate
02:57AM 52.0523 -43.5672 65° Northeast  Level FlightAware Approximate
02:58AM 52.1119 -43.3583 65° Northeast  Level FlightAware Approximate
02:59AM 52.1712 -43.1489 65° Northeast  Level FlightAware Approximate
03:00AM 52.2300 -42.9390 65° Northeast  Level FlightAware Approximate
03:01AM 52.2886 -42.7285 65° Northeast  Level FlightAware Approximate
03:02AM 52.3467 -42.5174 66° East  Level FlightAware Approximate
03:03AM 52.4044 -42.3058 66° East  Level FlightAware Approximate
03:04AM 52.4618 -42.0936 66° East  Level FlightAware Approximate
03:05AM 52.5188 -41.8809 66° East  Level FlightAware Approximate
03:06AM 52.5754 -41.6676 66° East  Level FlightAware Approximate
03:07AM 52.6316 -41.4538 67° East  Level FlightAware Approximate
03:08AM 52.6875 -41.2394 67° East  Level FlightAware Approximate
03:09AM 52.7429 -41.0245 67° East  Level FlightAware Approximate
03:10AM 52.7980 -40.8090 67° East  Level FlightAware Approximate
03:10AM 53.0000 -40.0000 76° East 556 640 33,000  Level ETMS Enhanced Traffic Management System
03:11AM 52.8526 -40.5930 67° East  Level FlightAware Approximate
03:12AM 52.9069 -40.3764 67° East  Level FlightAware Approximate
03:13AM 52.9608 -40.1593 68° East  Level FlightAware Approximate
03:14AM 53.0087 -39.9388 77° East  Level FlightAware Approximate
03:15AM 53.0411 -39.7098 77° East  Level FlightAware Approximate
03:16AM 53.0731 -39.4804 77° East  Level FlightAware Approximate
03:17AM 53.2726 -37.9901 78° East 556 640 33,000  Level FlightAware Transoceanic
03:18AM 53.3043 -37.7370 78° East 556 640 33,000  Level FlightAware Transoceanic
03:19AM 53.3354 -37.4837 78° East 556 640 33,000  Level FlightAware Transoceanic
03:20AM 53.3661 -37.2299 79° East 556 640 33,000  Level FlightAware Transoceanic
03:21AM 53.3961 -36.9758 79° East 556 640 33,000  Level FlightAware Transoceanic
03:22AM 53.4257 -36.7214 79° East 556 640 33,000  Level FlightAware Transoceanic
03:23AM 53.4547 -36.4666 79° East 556 640 33,000  Level FlightAware Transoceanic
03:24AM 53.4831 -36.2114 79° East 556 640 33,000  Level FlightAware Transoceanic
03:25AM 53.5110 -35.9559 80° East 556 640 33,000  Level FlightAware Transoceanic
03:26AM 53.5384 -35.7001 80° East 556 640 33,000  Level FlightAware Transoceanic
03:27AM 53.5652 -35.4440 80° East 556 640 33,000  Level FlightAware Transoceanic
03:28AM 53.5914 -35.1875 80° East 556 640 33,000  Level FlightAware Transoceanic
03:29AM 53.6172 -34.9307 81° East 556 640 33,000  Level FlightAware Transoceanic
03:30AM 53.6423 -34.6736 81° East 556 640 33,000  Level FlightAware Transoceanic
03:31AM 53.6670 -34.4162 81° East 556 640 33,000  Level FlightAware Transoceanic
03:32AM 53.6910 -34.1585 81° East 556 640 33,000  Level FlightAware Transoceanic
03:33AM 53.7145 -33.9005 81° East 556 640 33,000  Level FlightAware Transoceanic
03:34AM 53.7375 -33.6422 82° East 556 640 33,000  Level FlightAware Transoceanic
03:35AM 53.7599 -33.3837 82° East 556 640 33,000  Level FlightAware Transoceanic
03:36AM 53.7817 -33.1248 82° East 556 640 33,000  Level FlightAware Transoceanic
03:37AM 53.8030 -32.8657 82° East 556 640 33,000  Level FlightAware Transoceanic
03:38AM 53.8237 -32.6064 82° East 556 640 33,000  Level FlightAware Transoceanic
03:39AM 53.8439 -32.3468 83° East 556 640 33,000  Level FlightAware Transoceanic
03:40AM 53.8635 -32.0869 83° East 556 640 33,000  Level FlightAware Transoceanic
03:41AM 53.8825 -31.8268 83° East 556 640 33,000  Level FlightAware Transoceanic
03:42AM 53.9010 -31.5665 83° East 556 640 33,000  Level FlightAware Transoceanic
03:43AM 53.9189 -31.3059 83° East 556 640 33,000  Level FlightAware Transoceanic
03:44AM 53.9363 -31.0452 84° East 556 640 33,000  Level FlightAware Transoceanic
03:45AM 53.9530 -30.7842 84° East 556 640 33,000  Level FlightAware Transoceanic
03:46AM 53.9693 -30.5230 84° East 556 640 33,000  Level FlightAware Transoceanic
03:47AM 53.9849 -30.2616 84° East 556 640 33,000  Level FlightAware Transoceanic
03:48AM 53.9987 -30.0220 84° East  Level FlightAware Approximate
03:49AM 54.0121 -29.7823 84° East  Level FlightAware Approximate
03:50AM 54.0264 -29.8143 76° East  Level FlightAware Approximate
03:51AM 54.0585 -29.5853 76° East  Level FlightAware Approximate
03:51AM 54.0000 -30.0000 76° East 543 625 33,000  Level ETMS Enhanced Traffic Management System
03:52AM 54.0902 -29.3559 77° East  Level FlightAware Approximate
03:53AM 54.1216 -29.1258 77° East  Level FlightAware Approximate
03:54AM 54.1524 -28.8953 77° East  Level FlightAware Approximate
03:55AM 54.1828 -28.6645 77° East  Level FlightAware Approximate
03:56AM 54.2128 -28.4334 77° East  Level FlightAware Approximate
03:57AM 54.3035 -27.7387 78° East 543 625 33,000  Level FlightAware Transoceanic
03:58AM 54.3345 -27.4854 78° East 543 625 33,000  Level FlightAware Transoceanic
03:59AM 54.3651 -27.2318 78° East 543 625 33,000  Level FlightAware Transoceanic
04:00AM 54.3951 -26.9778 79° East 543 625 33,000  Level FlightAware Transoceanic
04:01AM 54.4246 -26.7234 79° East 543 625 33,000  Level FlightAware Transoceanic
04:02AM 54.4536 -26.4686 79° East 543 625 33,000  Level FlightAware Transoceanic
04:03AM 54.4820 -26.2135 79° East 543 625 33,000  Level FlightAware Transoceanic
04:04AM 54.5099 -25.9581 79° East 543 625 33,000  Level FlightAware Transoceanic
04:05AM 54.5372 -25.7023 80° East 543 625 33,000  Level FlightAware Transoceanic
04:06AM 54.5640 -25.4462 80° East 543 625 33,000  Level FlightAware Transoceanic
04:07AM 54.5903 -25.1897 80° East 543 625 33,000  Level FlightAware Transoceanic
04:08AM 54.6160 -24.9329 80° East 543 625 33,000  Level FlightAware Transoceanic
04:09AM 54.6412 -24.6758 81° East 543 625 33,000  Level FlightAware Transoceanic
04:10AM 54.6658 -24.4183 81° East 543 625 33,000  Level FlightAware Transoceanic
04:11AM 54.6899 -24.1606 81° East 543 625 33,000  Level FlightAware Transoceanic
04:12AM 54.7134 -23.9025 81° East 543 625 33,000  Level FlightAware Transoceanic
04:13AM 54.7364 -23.6442 81° East 543 625 33,000  Level FlightAware Transoceanic
04:14AM 54.7588 -23.3856 82° East 543 625 33,000  Level FlightAware Transoceanic
04:15AM 54.7807 -23.1267 82° East 543 625 33,000  Level FlightAware Transoceanic
04:16AM 54.8020 -22.8675 82° East 543 625 33,000  Level FlightAware Transoceanic
04:17AM 54.8228 -22.6080 82° East 543 625 33,000  Level FlightAware Transoceanic
04:18AM 54.8430 -22.3483 82° East 543 625 33,000  Level FlightAware Transoceanic
04:19AM 54.8627 -22.0883 83° East 543 625 33,000  Level FlightAware Transoceanic
04:20AM 54.8818 -21.8281 83° East 543 625 33,000  Level FlightAware Transoceanic
04:21AM 54.9004 -21.5676 83° East 543 625 33,000  Level FlightAware Transoceanic
04:22AM 54.9184 -21.3069 83° East 543 625 33,000  Level FlightAware Transoceanic
04:23AM 54.9358 -21.0459 83° East 543 625 33,000  Level FlightAware Transoceanic
04:24AM 54.9527 -20.7848 84° East 543 625 33,000  Level FlightAware Transoceanic
04:25AM 54.9690 -20.5234 84° East 543 625 33,000  Level FlightAware Transoceanic
04:26AM 54.9848 -20.2618 84° East 543 625 33,000 60 Level FlightAware Transoceanic
04:27AM 54.9988 -20.0216 84° East  Level FlightAware Approximate
04:28AM 55.0122 -19.7812 84° East  Level FlightAware Approximate
04:29AM 55.0060 -19.8022 87° East  Level FlightAware Approximate
04:30AM 55.0128 -19.5614 87° East  Level FlightAware Approximate
04:31AM 55.0192 -19.3205 87° East  Level FlightAware Approximate
04:32AM 55.0251 -19.0795 87° East  Level FlightAware Approximate
04:33AM 55.0305 -18.8384 88° East  Level FlightAware Approximate
04:34AM 55.0355 -18.5973 88° East  Level FlightAware Approximate
04:35AM 55.0400 -18.3562 88° East  Level FlightAware Approximate
04:36AM 55.0440 -18.1149 88° East  Level FlightAware Approximate
04:37AM 55.0475 -17.8737 88° East  Level FlightAware Approximate
04:38AM 55.0505 -17.6324 89° East  Level FlightAware Approximate
04:39AM 55.0531 -17.3910 89° East  Level FlightAware Approximate
04:40AM 55.0552 -17.1497 89° East  Level FlightAware Approximate
04:41AM 55.0568 -16.9083 89° East  Level FlightAware Approximate
04:42AM 55.0579 -16.6668 89° East  Level FlightAware Approximate
04:43AM 55.0586 -16.4254 90° East  Level FlightAware Approximate
04:44AM 55.0588 -16.1840 90° East  Level FlightAware Approximate
04:45AM 55.0584 -15.9426 90° East  Level FlightAware Approximate
04:46AM 55.0577 -15.7012 90° East  Level FlightAware Approximate
04:47AM 55.0564 -15.4598 90° East  Level FlightAware Approximate
04:48AM 55.0547 -15.2184 91° East  Level FlightAware Approximate
04:49AM 55.0525 -14.9770 91° East  Level FlightAware Approximate
04:50AM 55.0498 -14.7353 91° East  Level FlightAware Approximate
04:51AM 55.0466 -14.4936 91° East  Level FlightAware Approximate
04:52AM 55.0430 -14.2520 91° East  Level FlightAware Approximate
04:53AM 55.0388 -14.0103 92° East  Level FlightAware Approximate
04:54AM 55.0342 -13.7692 92° East  Level FlightAware Approximate
04:54AM 54.9900 -13.4600 92° East 520 598 35,000  Level FlightAware
04:54AM 54.9880 -13.3050 91° East 519 597 35,000 120 Level FlightAware
04:55AM 54.9850 -13.1340 92° East 519 597 35,200 840 Climbing FlightAware
04:56AM 54.9810 -12.9390 92° East 516 594 36,200 1,200 Climbing FlightAware
04:56AM 54.9780 -12.7780 92° East 513 590 36,900 540 Climbing FlightAware
04:57AM 54.9740 -12.5920 92° East 515 593 37,000 60 Climbing FlightAware
04:58AM 54.9700 -12.4230 92° East 515 593 37,000  Level FlightAware
04:58AM 54.9660 -12.2610 92° East 515 593 37,000  Level FlightAware
04:59AM 54.9630 -12.1330 92° East 514 592 37,000  Level FlightAware
05:00AM 54.9570 -11.9110 93° East 513 590 37,000  Level FlightAware
05:00AM 54.9520 -11.7470 93° East 512 589 37,000  Level FlightAware
05:01AM 54.9460 -11.5620 93° East 512 589 37,000  Level FlightAware
05:02AM 54.9410 -11.3930 93° East 510 587 37,000  Level FlightAware
05:03AM 54.9350 -11.2300 94° East 510 587 37,000  Level FlightAware
05:03AM 54.9290 -11.0460 93° East 510 587 37,000  Level FlightAware
05:04AM 54.9220 -10.8580 94° East 510 587 37,000  Level FlightAware
05:05AM 54.9160 -10.6990 94° East 510 587 37,000  Level FlightAware
05:05AM 54.9100 -10.5320 94° East 510 587 37,000  Level FlightAware
05:06AM 54.9030 -10.3810 95° East 510 587 37,000  Level FlightAware
05:07AM 54.8940 -10.1650 94° East 510 587 37,000  Level FlightAware
05:08AM 54.8850 -9.9610 94° East 509 586 37,000  Level FlightAware
05:09AM 54.8720 -9.6720 94° East 509 586 37,000  Level FlightAware
05:10AM 54.8620 -9.4480 94° East 510 587 37,000  Level FlightAware
05:11AM 54.8400 -9.0620 95° East 510 587 37,000 -840 Level FlightAware
05:12AM 54.8410 -9.0568 95° East  Level FlightAware Approximate
05:12AM 54.8283 -8.9639 95° East 488 562 35,500  Level FlightAware UK
05:12AM 54.8186 -8.8921 103° East 492 566 35,500 4,080 Level FlightAware UK
05:12AM 54.8190 -8.9020 103° East 510 587 37,000  Climbing FlightAware
05:12AM 54.8045 -8.7969 103° East 490 564 35,500 -2,400 Descending FlightAware UK
05:13AM 54.7926 -8.7260 106° East 490 564 35,500 3,600 Level FlightAware UK
05:13AM 54.7910 -8.7240 106° East 510 587 37,000  Climbing FlightAware
05:13AM 54.7766 -8.6323 106° East 488 562 35,500 -2,580 Descending FlightAware UK
05:13AM 54.7646 -8.5616 106° East 490 564 35,500 3,900 Level FlightAware UK
05:14AM 54.7650 -8.5640 106° East 504 580 37,000  Climbing FlightAware
05:14AM 54.7487 -8.4684 106° East 490 564 35,500 -2,460 Descending FlightAware UK
05:14AM 54.7369 -8.3986 106° East 488 562 35,500 4,260 Level FlightAware UK
05:14AM 54.7390 -8.4130 106° East 502 578 37,000  Climbing FlightAware
05:14AM 54.7254 -8.3289 106° East 490 564 35,500 -2,760 Descending FlightAware UK
05:15AM 54.7138 -8.2595 106° East 492 566 35,500 3,000 Level FlightAware UK
05:15AM 54.7100 -8.2350 106° East 499 574 37,000  Climbing FlightAware
05:15AM 54.6948 -8.1440 106° East 490 564 35,500 -2,520 Descending FlightAware UK
05:16AM 54.6834 -8.0753 106° East 486 559 35,500 4,080 Level FlightAware UK
05:16AM 54.6860 -8.0900 106° East 496 571 37,000  Climbing FlightAware
05:16AM 54.6680 -7.9842 106° East 482 555 35,500 -2,400 Descending FlightAware UK
05:16AM 54.6566 -7.9160 106° East 486 559 35,500 3,600 Level FlightAware UK
05:16AM 54.6570 -7.9150 106° East 493 567 37,000  Climbing FlightAware
05:17AM 54.6412 -7.8253 106° East 488 562 35,500 -2,580 Descending FlightAware UK
05:17AM 54.6295 -7.7575 107° East 486 559 35,500 3,900 Level FlightAware UK
05:17AM 54.6300 -7.7640 107° East 490 564 37,000  Climbing FlightAware
05:17AM 54.6139 -7.6674 107° East 484 557 35,500 -2,460 Descending FlightAware UK
05:18AM 54.6022 -7.6001 107° East 482 555 35,500 3,420 Level FlightAware UK
05:18AM 54.6010 -7.5920 107° East 487 560 37,000  Climbing FlightAware
05:18AM 54.5867 -7.5105 107° East 484 557 35,500 -2,700 Descending FlightAware UK
05:18AM 54.5748 -7.4436 107° East 482 555 35,500 3,720 Level FlightAware UK
05:18AM 54.5740 -7.4430 107° East 487 560 37,000  Climbing FlightAware
05:19AM 54.5590 -7.3545 107° East 482 555 35,500 -2,460 Descending FlightAware UK
05:19AM 54.5471 -7.2868 107° East 480 552 35,500 4,080 Level FlightAware UK
05:19AM 54.5490 -7.2980 107° East 489 563 37,000  Climbing FlightAware
05:19AM 54.5353 -7.2198 107° East 486 559 35,500 -2,760 Descending FlightAware UK
05:20AM 54.5234 -7.1528 107° East 482 555 35,500 3,000 Level FlightAware UK
05:20AM 54.5190 -7.1300 107° East 490 564 37,000  Climbing FlightAware
05:20AM 54.5033 -7.0413 107° East 482 555 35,500 -2,520 Descending FlightAware UK
05:20AM 54.4913 -6.9742 107° East 480 552 35,500 4,080 Level FlightAware UK
05:21AM 54.4920 -6.9780 107° East 490 564 37,000  Climbing FlightAware
05:21AM 54.4752 -6.8850 107° East 482 555 35,500 -2,400 Descending FlightAware UK
05:21AM 54.4629 -6.8179 107° East 484 557 35,500 4,500 Level FlightAware UK
05:21AM 54.4650 -6.8320 107° East 493 567 37,000  Climbing FlightAware
05:21AM 54.4506 -6.7506 107° East 482 555 35,500 -2,700 Descending FlightAware UK
05:22AM 54.4382 -6.6832 107° East 484 557 35,500 3,060 Level FlightAware UK
05:22AM 54.4340 -6.6600 107° East 495 570 37,000  Climbing FlightAware
05:22AM 54.4174 -6.5707 107° East 484 557 35,500 -2,460 Descending FlightAware UK
05:23AM 54.4050 -6.5031 108° East 484 557 35,500 4,260 Level FlightAware UK
05:23AM 54.4060 -6.5140 108° East 495 570 37,000  Climbing FlightAware
05:23AM 54.3926 -6.4355 108° East 488 562 35,500 -2,760 Descending FlightAware UK
05:23AM 54.3799 -6.3679 108° East 486 559 35,500 3,600 Level FlightAware UK
05:23AM 54.3790 -6.3670 108° East 496 571 37,000  Climbing FlightAware
05:24AM 54.3630 -6.2776 108° East 490 564 35,500 -2,580 Descending FlightAware UK
05:24AM 54.3502 -6.2100 108° East 492 566 35,500 3,180 Level FlightAware UK
05:24AM 54.3470 -6.1950 108° East 496 571 37,000  Climbing FlightAware
05:24AM 54.3289 -6.0973 108° East 490 564 35,500 -2,400 Descending FlightAware UK
05:25AM 54.3160 -6.0290 108° East 488 562 35,500 4,500 Level FlightAware UK
05:25AM 54.3180 -6.0410 108° East 496 571 37,000  Climbing FlightAware
05:25AM 54.3032 -5.9615 108° East 490 564 35,500  Descending FlightAware UK
05:25AM 54.2850 -5.8690 108° East 496 571 37,000  Climbing FlightAware
05:26AM 54.2686 -5.7822 108° East 486 559 35,500  Descending FlightAware UK
05:26AM 54.2560 -5.7190 108° East 497 572 37,000  Climbing FlightAware
05:26AM 54.2425 -5.6475 108° East 490 564 35,500 -2,760 Descending FlightAware UK
05:27AM 54.2294 -5.5801 108° East 490 564 35,500 3,600 Level FlightAware UK
05:27AM 54.2270 -5.5730 108° East 500 575 37,000  Climbing FlightAware
05:27AM 54.2118 -5.4902 108° East 502 578 35,500 -2,760 Descending FlightAware UK
05:27AM 54.1987 -5.4229 108° East 498 573 35,400 3,180 Descending FlightAware UK
05:28AM 54.1950 -5.4050 108° East 493 567 37,000 120 Climbing FlightAware
05:28AM 54.1700 -5.2907 108° East 490 564 35,500  Descending FlightAware UK
05:28AM 54.1710 -5.2960 108° East 496 571 37,000  Climbing FlightAware
05:28AM 54.1426 -5.2090 108° East 490 564 35,500  Descending FlightAware UK
05:29AM 54.1320 -5.1840 108° East 503 579 37,000  Climbing FlightAware
05:29AM 54.0999 -5.1151 108° East 496 571 35,500 -2,400 Descending FlightAware UK
05:29AM 54.0739 -5.0588 128° Southeast 498 573 35,500 4,500 Level FlightAware UK
05:29AM 54.0760 -5.0660 128° Southeast 504 580 37,000  Climbing FlightAware
05:30AM 54.0390 -4.9848 128° Southeast 494 568 35,500 -2,280 Descending FlightAware UK
05:30AM 54.0128 -4.9296 129° Southeast 494 568 35,500 3,900 Level FlightAware UK
05:30AM 54.0110 -4.9280 129° Southeast 501 577 37,000  Climbing FlightAware
05:30AM 53.9779 -4.8564 129° Southeast 496 571 35,500 -2,460 Descending FlightAware UK
05:31AM 53.9517 -4.8016 129° Southeast 492 566 35,500 4,260 Level FlightAware UK
05:31AM 53.9540 -4.8060 129° Southeast 499 574 37,000  Climbing FlightAware
05:31AM 53.9256 -4.7471 129° Southeast 492 566 35,500 -2,340 Descending FlightAware UK
05:31AM 53.8908 -4.6744 129° Southeast 496 571 35,500 3,600 Level FlightAware UK
05:31AM 53.8930 -4.6820 129° Southeast 497 572 37,000  Climbing FlightAware
05:32AM 53.8647 -4.6201 129° Southeast 496 571 35,500  Descending FlightAware UK
05:32AM 53.8300 -4.5500 129° Southeast 492 566 37,000 1,320 Climbing FlightAware
05:33AM 53.7740 -4.4340 129° Southeast 490 564 37,000 -1,620 Level FlightAware
05:33AM 53.7440 -4.3701 129° Southeast 484 557 35,500  Descending FlightAware UK
05:33AM 53.7120 -4.3040 129° Southeast 488 562 37,000  Climbing FlightAware
05:34AM 53.6668 -4.2110 129° Southeast 486 559 35,500  Descending FlightAware UK
05:34AM 53.6560 -4.1890 129° Southeast 488 562 37,000 1,620 Climbing FlightAware
05:35AM 53.5970 -4.0690 130° Southeast 488 562 37,000 -1,620 Level FlightAware
05:35AM 53.5636 -4.0002 130° Southeast 490 564 35,500 -2,220 Descending FlightAware UK
05:35AM 53.5289 -3.9296 130° Southeast 486 559 35,500 3,180 Level FlightAware UK
05:36AM 53.5300 -3.9320 130° Southeast 487 560 37,000  Climbing FlightAware
05:36AM 53.4944 -3.8599 130° Southeast 484 557 35,500  Descending FlightAware UK
05:36AM 53.4740 -3.8190 130° Southeast 487 560 37,000  Climbing FlightAware
05:36AM 53.4424 -3.7557 130° Southeast 482 555 35,500  Descending FlightAware UK
05:37AM 53.4217 -3.7143 130° Southeast 489 563 37,000 1,860 Climbing FlightAware ADS-B
05:37AM 53.3747 -3.6211 130° Southeast 491 565 37,000  Level FlightAware ADS-B
05:38AM 53.3297 -3.5308 130° Southeast 493 567 37,000 -1,620 Level FlightAware ADS-B
05:38AM 53.2937 -3.4580 130° Southeast 490 564 35,500  Descending FlightAware UK
05:38AM 53.2803 -3.4345 130° Southeast 494 568 37,000  Climbing FlightAware ADS-B
05:39AM 53.2494 -3.3707 130° Southeast 488 562 35,500  Descending FlightAware UK
05:39AM 53.2322 -3.3387 130° Southeast 494 568 37,000  Climbing FlightAware ADS-B
05:39AM 53.2052 -3.2834 130° Southeast 492 566 35,500  Descending FlightAware UK
05:39AM 53.1879 -3.2513 130° Southeast 495 570 37,000  Climbing FlightAware ADS-B
05:40AM 53.1518 -3.1783 130° Southeast 490 564 35,500  Descending FlightAware UK
05:40AM 53.1408 -3.1586 130° Southeast 494 568 37,000  Climbing FlightAware ADS-B
05:40AM 53.1164 -3.1087 130° Southeast 492 566 35,500  Descending FlightAware UK
05:41AM 53.0865 -3.0514 130° Southeast 494 568 37,000 1,680 Climbing FlightAware ADS-B
05:41AM 53.0381 -2.9562 130° Southeast 494 568 37,000 -1,560 Level FlightAware ADS-B
05:41AM 53.0007 -2.8829 130° Southeast 494 568 35,500  Descending FlightAware UK
05:42AM 52.9815 -2.8465 130° Southeast 495 570 37,000 1,860 Climbing FlightAware ADS-B
05:42AM 52.9316 -2.7516 131° Southeast 495 570 37,000  Level FlightAware ADS-B
05:43AM 52.8867 -2.6626 130° Southeast 496 571 37,000 -1,860 Level FlightAware ADS-B
05:43AM 52.8576 -2.6073 130° Southeast 488 562 35,500  Descending FlightAware UK
05:43AM 52.8398 -2.5777 130° Southeast 497 572 37,000  Climbing FlightAware ADS-B
05:44AM 52.8107 -2.5230 130° Southeast 492 566 35,500  Descending FlightAware UK
05:44AM 52.7906 -2.4880 130° Southeast 498 573 37,000  Climbing FlightAware ADS-B
05:44AM 52.7638 -2.4389 130° Southeast 496 571 35,500  Descending FlightAware UK
05:44AM 52.7412 -2.3986 130° Southeast 498 573 37,000 1,980 Climbing FlightAware ADS-B
05:45AM 52.6945 -2.3146 133° Southeast 497 572 37,000 -2,040 Level FlightAware ADS-B
05:45AM 52.6705 -2.2706 133° Southeast 500 575 35,500  Descending FlightAware UK
05:45AM 52.6472 -2.2312 133° Southeast 495 570 37,000 1,860 Climbing FlightAware ADS-B
05:46AM 52.5982 -2.1423 132° Southeast 493 567 37,000  Level FlightAware ADS-B
05:46AM 52.5507 -2.0570 132° Southeast 493 567 37,000 -1,860 Level FlightAware ADS-B
05:47AM 52.5228 -2.0047 132° Southeast 494 568 35,500  Descending FlightAware UK
05:47AM 52.5033 -1.9720 132° Southeast 490 564 37,000  Climbing FlightAware ADS-B
05:47AM 52.4675 -1.9062 132° Southeast 494 568 35,500  Descending FlightAware UK
05:47AM 52.4564 -1.8872 132° Southeast 491 565 37,000  Climbing FlightAware ADS-B
05:48AM 52.4301 -1.8403 132° Southeast 492 566 35,500  Descending FlightAware UK
05:48AM 52.4099 -1.8054 132° Southeast 490 564 37,000  Climbing FlightAware ADS-B
05:48AM 52.3838 -1.7588 132° Southeast 492 566 35,500  Descending FlightAware UK
05:48AM 52.3615 -1.7213 132° Southeast 490 564 37,000 1,860 Climbing FlightAware ADS-B
05:49AM 52.3107 -1.6322 133° Southeast 488 562 37,000 -1,800 Level FlightAware ADS-B
05:49AM 52.2825 -1.5803 133° Southeast 490 564 35,500  Descending FlightAware UK
05:50AM 52.2600 -1.5430 133° Southeast 487 560 37,000 3,600 Climbing FlightAware
05:50AM 52.2447 -1.5163 133° Southeast 488 562 37,000  Level FlightAware ADS-B
05:50AM 52.1974 -1.4331 133° Southeast 488 562 37,000 -1,740 Level FlightAware ADS-B
05:51AM 52.1624 -1.3705 133° Southeast 488 562 35,500  Descending FlightAware UK
05:51AM 52.1501 -1.3500 133° Southeast 489 563 37,000  Climbing FlightAware ADS-B
05:51AM 52.1255 -1.3062 133° Southeast 490 564 35,500  Descending FlightAware UK
05:51AM 52.1021 -1.2669 133° Southeast 490 564 37,000  Climbing FlightAware ADS-B
05:52AM 52.0698 -1.2098 133° Southeast 494 568 35,500  Descending FlightAware UK
05:52AM 52.0554 -1.1867 133° Southeast 490 564 37,000  Climbing FlightAware ADS-B
05:52AM 52.0323 -1.1450 133° Southeast 492 566 35,500  Descending FlightAware UK
05:52AM 52.0080 -1.1038 133° Southeast 490 564 37,000 1,860 Climbing FlightAware ADS-B
05:53AM 51.9599 -1.0209 133° Southeast 491 565 37,000 -1,800 Level FlightAware ADS-B
05:53AM 51.9296 -0.9688 133° Southeast 492 566 35,500  Descending FlightAware UK
05:53AM 51.9105 -0.9380 133° Southeast 492 566 37,000 2,040 Climbing FlightAware ADS-B
05:54AM 51.8618 -0.8553 134° Southeast 493 567 37,000 -1,920 Level FlightAware ADS-B
05:54AM 51.8353 -0.8080 134° Southeast 492 566 35,500  Descending FlightAware UK
05:54AM 51.8145 -0.7754 134° Southeast 494 568 37,000  Climbing FlightAware ADS-B
05:55AM 51.7881 -0.7279 134° Southeast 494 568 35,500  Descending FlightAware UK
05:55AM 51.7673 -0.6954 134° Southeast 494 568 37,000  Climbing FlightAware ADS-B
05:55AM 51.7315 -0.6321 134° Southeast 494 568 35,500  Descending FlightAware UK
05:55AM 51.7198 -0.6129 134° Southeast 493 567 37,000  Climbing FlightAware ADS-B
05:56AM 51.6934 -0.5679 134° Southeast 494 568 35,500  Descending FlightAware UK
05:56AM 51.6707 -0.5308 134° Southeast 493 567 37,000  Climbing FlightAware ADS-B
05:56AM 51.6465 -0.4888 134° Southeast 494 568 35,500  Descending FlightAware UK
05:56AM 51.6234 -0.4514 134° Southeast 493 567 37,000  Climbing FlightAware ADS-B
05:57AM 51.5897 -0.3938 134° Southeast 496 571 35,500  Descending FlightAware UK
05:57AM 51.5758 -0.3720 134° Southeast 492 566 37,000 3,600 Climbing FlightAware ADS-B
05:57AM 51.5512 -0.3293 133° Southeast 491 565 37,000  Level FlightAware ADS-B
05:57AM 51.5260 -0.2696 124° Southeast 485 558 37,000  Level FlightAware ADS-B
05:58AM 51.5180 -0.2441 117° Southeast 483 556 37,000  Level FlightAware ADS-B
05:58AM 51.5072 -0.2012 112° Southeast 479 551 37,000  Level FlightAware ADS-B
05:58AM 51.4921 -0.0981 103° East 477 549 37,000  Level FlightAware ADS-B
05:59AM 51.4782 0.0089 102° East 477 549 37,000  Level FlightAware ADS-B
05:59AM 51.4638 0.1191 102° East 476 548 37,000 -1,920 Level FlightAware ADS-B
06:00AM 51.4562 0.1762 102° East 500 575 35,500  Descending FlightAware UK
06:00AM 51.4490 0.2296 102° East 476 548 37,000 1,860 Climbing FlightAware ADS-B
06:00AM 51.4348 0.3325 102° East 475 547 37,000 -1,800 Level FlightAware ADS-B
06:01AM 51.4256 0.4030 102° East 496 571 35,500  Descending FlightAware UK
06:01AM 51.4174 0.4626 102° East 474 545 37,000  Climbing FlightAware ADS-B
06:01AM 51.4087 0.5268 102° East 494 568 35,500  Descending FlightAware UK
06:02AM 51.4016 0.5755 102° East 473 544 37,000 1,920 Climbing FlightAware ADS-B
06:02AM 51.3871 0.6811 102° East 473 544 37,000  Level FlightAware ADS-B
06:03AM 51.3719 0.7903 103° East 474 545 37,000  Level FlightAware ADS-B
06:03AM 51.3574 0.8927 103° East 473 544 37,000 -1,920 Level FlightAware ADS-B
06:03AM 51.3486 0.9564 103° East 492 566 35,500  Descending FlightAware UK
06:04AM 51.3403 1.0121 103° East 475 547 37,000  Climbing FlightAware ADS-B
06:04AM 51.3310 1.0800 103° East 492 566 35,500  Descending FlightAware UK
06:04AM 51.3251 1.1213 103° East 475 547 37,000  Climbing FlightAware ADS-B
06:05AM 51.3163 1.1826 103° East 490 564 35,500  Descending FlightAware UK
06:05AM 51.3080 1.2380 103° East 476 548 37,000  Climbing FlightAware
06:05AM 51.2985 1.3058 103° East 500 575 35,500 -2,700 Descending FlightAware UK
06:05AM 51.2895 1.3682 103° East 502 578 35,500 3,720 Level FlightAware UK
06:06AM 51.2880 1.3780 103° East 476 548 37,000  Climbing FlightAware
06:06AM 51.2746 1.4709 103° East 504 580 35,500  Descending FlightAware UK
06:06AM 51.2670 1.5210 103° East 474 545 37,000  Climbing FlightAware
06:07AM 51.2565 1.5934 103° East 502 578 35,500 -2,340 Descending FlightAware UK
06:07AM 51.2442 1.6737 104° East 500 575 35,500 1,980 Level FlightAware UK
06:07AM 51.2310 1.7290 104° East 472 543 37,000  Climbing FlightAware
06:08AM 51.2154 1.7903 104° East 500 575 35,500  Descending FlightAware UK
06:08AM 51.2060 1.8190 104° East 474 545 37,000  Climbing FlightAware
06:08AM 51.1809 1.9042 104° East 502 578 35,500  Descending FlightAware UK
06:08AM 51.1660 1.9510 104° East 473 544 37,000  Climbing FlightAware
06:09AM 51.1468 2.0177 104° East 502 578 35,500 -2,580 Descending FlightAware UK
06:09AM 51.1298 2.0739 116° Southeast 500 575 35,500 3,180 Level FlightAware UK
06:09AM 51.1250 2.0880 116° Southeast 470 541 37,000  Climbing FlightAware
06:10AM 51.0958 2.1861 116° Southeast 504 580 35,500  Descending FlightAware UK
06:10AM 51.0920 2.1970 116° Southeast 468 539 37,000  Climbing FlightAware
06:10AM 51.0735 2.2605 116° Southeast 502 578 35,500 -2,760 Descending FlightAware UK
06:10AM 51.0566 2.3158 116° Southeast 500 575 35,500 3,000 Level FlightAware UK
06:11AM 51.0500 2.3360 116° Southeast 465 535 37,000  Climbing FlightAware
06:11AM 51.0174 2.4441 116° Southeast 498 573 35,500  Descending FlightAware UK
06:11AM 51.0080 2.4730 116° Southeast 463 533 37,000 4,080 Climbing FlightAware
06:11AM 50.9969 2.5098 116° Southeast 462 532 37,000  Level FlightAware ADS-B
06:12AM 50.9681 2.6041 116° Southeast 462 532 37,000 -1,620 Level FlightAware ADS-B
06:12AM 50.9443 2.6818 116° Southeast 492 566 35,500  Descending FlightAware UK
06:13AM 50.9260 2.7370 116° Southeast 462 532 37,000 1,860 Climbing FlightAware
06:13AM 50.8995 2.8256 115° Southeast 462 532 37,000  Level FlightAware ADS-B
06:14AM 50.8709 2.9167 116° Southeast 464 534 37,000 -1,920 Level FlightAware ADS-B
06:14AM 50.8535 2.9727 116° Southeast 492 566 35,500 -1,500 Descending FlightAware UK
06:15AM 50.8133 3.1005 116° Southeast 494 568 35,500 1,740 Level FlightAware UK
06:15AM 50.8060 3.1210 116° Southeast 466 536 37,000  Climbing FlightAware
06:15AM 50.7900 3.1743 116° Southeast 492 566 35,500  Descending FlightAware UK
06:15AM 50.7680 3.2430 116° Southeast 468 539 37,000  Climbing FlightAware
06:16AM 50.7494 3.3027 116° Southeast 492 566 35,500  Descending FlightAware UK
06:16AM 50.7240 3.3810 116° Southeast 471 542 37,000  Climbing FlightAware
06:17AM 50.6966 3.4688 116° Southeast 496 571 35,500  Descending FlightAware UK
06:17AM 50.6900 3.4890 116° Southeast 474 545 37,000  Climbing FlightAware
06:17AM 50.6668 3.5612 116° Southeast 500 575 35,500 -2,280 Descending FlightAware UK
06:18AM 50.6430 3.6352 117° Southeast 498 573 35,500 3,720 Level FlightAware UK
06:18AM 50.6480 3.6180 117° Southeast 474 545 37,000 1,980 Climbing FlightAware
06:18AM 50.6010 3.7650 117° Southeast 475 547 37,000 -1,260 Level FlightAware
06:19AM 50.5716 3.8570 117° Southeast 502 578 35,500  Descending FlightAware UK
06:19AM 50.5630 3.8820 117° Southeast 473 544 37,000 1,500 Climbing FlightAware
06:20AM 50.5180 4.0190 117° Southeast 472 543 37,000  Level FlightAware
06:20AM 50.4820 4.1320 117° Southeast 470 541 37,000 -1,500 Level FlightAware
06:21AM 50.4533 4.2241 117° Southeast 500 575 35,500  Descending FlightAware UK
06:21AM 50.4330 4.2770 117° Southeast 469 540 37,000  Climbing FlightAware
06:22AM 50.3989 4.3863 117° Southeast 1 1 35,500  Descending FlightAware UK
06:22AM 50.3940 4.3970 117° Southeast 469 540 37,000  Climbing FlightAware
06:22AM 50.3742 4.4569 117° Southeast 1 1 35,500 -2,700 Descending FlightAware UK
06:22AM 50.3565 4.5115 117° Southeast 1 1 35,500 3,060 Level FlightAware UK
06:23AM 50.3480 4.5360 117° Southeast 470 541 37,000 1,740 Climbing FlightAware
06:23AM 50.3080 4.6560 118° Southeast 469 540 37,000  Level FlightAware
06:24AM 50.2690 4.7700 118° Southeast 467 537 37,000  Level FlightAware
06:25AM 50.2210 4.9130 118° Southeast 466 536 37,000  Level FlightAware
06:25AM 50.1810 5.0290 118° Southeast 466 536 37,000  Level FlightAware
06:26AM 50.1400 5.1500 118° Southeast 464 534 37,000  Level FlightAware
06:27AM 50.0960 5.2800 118° Southeast 467 537 37,000  Level FlightAware
06:27AM 50.0560 5.3990 118° Southeast 467 537 37,000  Level FlightAware
06:28AM 50.0090 5.5320 119° Southeast 468 539 37,000  Level FlightAware
06:29AM 49.9680 5.6510 118° Southeast 470 541 37,000  Level FlightAware
06:30AM 49.9220 5.7810 119° Southeast 472 543 37,000  Level FlightAware
06:30AM 49.8790 5.9030 119° Southeast 473 544 37,000  Level FlightAware
06:31AM 49.8380 6.0200 118° Southeast 475 547 37,000  Level FlightAware
06:32AM 49.7880 6.1560 120° Southeast 479 551 37,000  Level FlightAware
06:32AM 49.7480 6.2580 121° Southeast 482 555 37,000  Level FlightAware
06:33AM 49.6910 6.3910 123° Southeast 485 558 37,000  Level FlightAware
06:34AM 49.6350 6.5160 125° Southeast 485 558 37,000  Level FlightAware
06:34AM 49.6010 6.5930 124° Southeast 485 558 37,000  Level FlightAware
06:35AM 49.5380 6.7320 125° Southeast 484 557 37,000  Level FlightAware
06:36AM 49.4840 6.8510 125° Southeast 484 557 37,000  Level FlightAware
06:36AM 49.4260 6.9810 124° Southeast 484 557 37,000  Level FlightAware
06:37AM 49.3690 7.1080 125° Southeast 485 558 37,000  Level FlightAware
06:38AM 49.3170 7.2210 125° Southeast 485 558 37,000  Level FlightAware
06:39AM 49.2610 7.3450 125° Southeast 484 557 37,000  Level FlightAware
06:39AM 49.2090 7.4590 125° Southeast 482 555 37,000  Level FlightAware
06:40AM 49.1580 7.5680 126° Southeast 481 554 37,000  Level FlightAware
06:41AM 49.1010 7.6930 125° Southeast 480 552 37,000  Level FlightAware
06:41AM 49.0470 7.8080 126° Southeast 479 551 37,000  Level FlightAware
06:42AM 49.0020 7.9070 125° Southeast 479 551 37,000  Level FlightAware
06:43AM 48.9390 8.0390 126° Southeast 479 551 37,000  Level FlightAware
06:43AM 48.8870 8.1510 125° Southeast 478 550 37,000  Level FlightAware
06:44AM 48.8350 8.2610 126° Southeast 474 545 37,000  Level FlightAware
06:45AM 48.7820 8.3730 126° Southeast 480 552 37,000  Level FlightAware
06:46AM 48.7230 8.4980 126° Southeast 477 549 37,000  Level FlightAware
06:46AM 48.6690 8.6050 127° Southeast 478 550 37,000  Level FlightAware
06:47AM 48.6040 8.7000 136° Southeast 478 550 37,000  Level FlightAware
06:48AM 48.5290 8.8010 138° Southeast 477 549 37,000  Level FlightAware
06:50AM 48.4022 9.1240 121° Southeast  Level Estimated
06:50AM 48.2710 9.1460 121° Southeast 478 550 37,000  Level FlightAware
06:52AM 48.1430 9.3130 139° Southeast 481 554 37,000  Level FlightAware
06:52AM 48.0620 9.4200 139° Southeast 488 562 37,000  Level FlightAware
06:53AM 47.9840 9.5220 139° Southeast 490 564 37,000  Level FlightAware
06:54AM 47.9160 9.6110 139° Southeast 492 566 37,000  Level FlightAware
06:54AM 47.8420 9.7070 139° Southeast 493 567 37,000  Level FlightAware
06:55AM 47.7690 9.8000 139° Southeast 494 568 37,000  Level FlightAware
06:56AM 47.7010 9.8870 139° Southeast 496 571 37,000  Level FlightAware
06:57AM 47.6260 9.9850 139° Southeast 497 572 37,000  Level FlightAware
06:57AM 47.5460 10.0850 140° Southeast 499 574 37,000  Level FlightAware
06:58AM 47.4750 10.1760 139° Southeast 499 574 37,000  Level FlightAware
06:59AM 47.4060 10.2630 140° Southeast 499 574 37,000  Level FlightAware
06:59AM 47.3270 10.3630 139° Southeast 502 578 37,000  Level FlightAware
07:00AM 47.2740 10.4290 140° Southeast 502 578 37,000  Level FlightAware
07:01AM 47.1830 10.5440 139° Southeast 502 578 37,000  Level FlightAware
07:01AM 47.1070 10.6390 140° Southeast 502 578 37,000  Level FlightAware
07:02AM 47.0350 10.7270 140° Southeast 496 571 37,000  Level FlightAware
07:03AM 46.9700 10.8230 135° Southeast 495 570 37,000  Level FlightAware
07:04AM 46.9020 10.9280 133° Southeast 500 575 37,000  Level FlightAware
07:04AM 46.8390 11.0270 133° Southeast 498 573 37,000  Level FlightAware
07:05AM 46.7690 11.1350 133° Southeast 498 573 37,000  Level FlightAware
07:06AM 46.7100 11.2290 132° Southeast 498 573 37,000  Level FlightAware
07:06AM 46.6340 11.3470 133° Southeast 499 574 37,000  Level FlightAware
07:07AM 46.5720 11.4440 133° Southeast 497 572 37,000  Level FlightAware
07:08AM 46.4640 11.6090 134° Southeast 494 568 37,000  Level FlightAware
07:09AM 46.3580 11.7720 133° Southeast 493 567 37,000  Level FlightAware
07:11AM 46.2300 11.9660 134° Southeast 495 570 37,000  Level FlightAware
07:12AM 46.1270 12.1210 134° Southeast 498 573 37,000  Level FlightAware
07:13AM 46.0050 12.3050 134° Southeast 498 573 37,000  Level FlightAware
07:14AM 45.8940 12.4710 134° Southeast 498 573 37,000  Level FlightAware
07:15AM 45.7630 12.6650 134° Southeast 495 570 37,000  Level FlightAware
07:17AM 45.6460 12.8720 129° Southeast 504 580 37,000  Level FlightAware
07:18AM 45.5620 13.0310 127° Southeast 505 581 37,000  Level FlightAware
07:19AM 45.4670 13.2110 127° Southeast 508 585 37,000  Level FlightAware
07:20AM 45.3680 13.3980 127° Southeast 508 585 37,000  Level FlightAware
07:22AM 45.2440 13.6330 127° Southeast 509 586 37,000  Level FlightAware
07:23AM 45.1530 13.8030 127° Southeast 511 588 37,000  Level FlightAware
07:24AM 45.0450 14.0030 127° Southeast 512 589 37,000  Level FlightAware
07:25AM 44.9490 14.1810 127° Southeast 507 583 37,000  Level FlightAware
07:26AM 44.8500 14.3630 127° Southeast 506 582 37,000  Level FlightAware
07:27AM 44.7730 14.5020 128° Southeast 509 586 37,000  Level FlightAware
07:28AM 44.6950 14.6450 127° Southeast 506 582 37,000  Level FlightAware
07:29AM 44.6190 14.7790 129° Southeast 504 580 37,000  Level FlightAware
07:29AM 44.5760 14.8570 128° Southeast 37,000  Level FlightAware
07:30AM 44.5010 14.9930 128° Southeast 503 579 37,000  Level FlightAware
07:31AM 44.4290 15.1210 128° Southeast 499 574 37,000  Level FlightAware
07:33AM 44.2790 15.3860 128° Southeast 499 574 37,000  Level FlightAware
07:35AM 44.1458 15.6793 122° Southeast  Level Estimated
07:35AM 44.1090 15.6840 122° Southeast 501 577 37,000  Level FlightAware
07:35AM 44.0600 15.7680 129° Southeast 502 578 37,000  Level FlightAware
07:36AM 43.9990 15.8750 128° Southeast 512 589 37,000  Level FlightAware
07:37AM 43.9240 16.0040 129° Southeast 519 597 37,000  Level FlightAware
07:37AM 43.8640 16.1090 128° Southeast 517 595 37,000  Level FlightAware
07:38AM 43.7980 16.2200 129° Southeast 516 594 37,000  Level FlightAware
07:39AM 43.7350 16.3290 129° Southeast 519 597 37,000  Level FlightAware
07:40AM 43.6510 16.4710 129° Southeast 514 592 37,000  Level FlightAware
07:40AM 43.5910 16.5720 129° Southeast 512 589 37,000  Level FlightAware
07:43AM 43.4302 16.9154 123° Southeast  Level Estimated
07:43AM 43.3960 16.9010 123° Southeast 509 586 37,000  Level FlightAware
07:43AM 43.3170 17.0270 131° Southeast 510 587 37,000  Level FlightAware
07:44AM 43.2490 17.1300 132° Southeast 504 580 37,000  Level FlightAware
07:45AM 43.1750 17.2380 133° Southeast 502 578 37,000  Level FlightAware
07:46AM 43.1090 17.3350 133° Southeast 503 579 37,000  Level FlightAware
07:46AM 43.0450 17.4280 133° Southeast 504 580 37,000  Level FlightAware
07:47AM 42.9740 17.5320 133° Southeast 503 579 37,000  Level FlightAware
07:48AM 42.9090 17.6250 134° Southeast 504 580 37,000  Level FlightAware
07:48AM 42.8360 17.7310 133° Southeast 504 580 37,000  Level FlightAware
07:49AM 42.7710 17.8260 133° Southeast 505 581 37,000  Level FlightAware
07:50AM 42.6980 17.9310 133° Southeast 511 588 37,000  Level FlightAware
07:50AM 42.6360 18.0200 133° Southeast 512 589 37,000  Level FlightAware
07:51AM 42.5690 18.1160 133° Southeast 513 590 37,000  Level FlightAware
07:52AM 42.4920 18.2260 133° Southeast 515 593 37,000  Level FlightAware
07:53AM 42.4290 18.3170 133° Southeast 517 595 37,000  Level FlightAware
07:53AM 42.3540 18.4220 134° Southeast 515 593 37,000  Level FlightAware
07:54AM 42.2960 18.5040 134° Southeast 515 593 37,000  Level FlightAware
07:55AM 42.2220 18.6080 134° Southeast 517 595 37,000  Level FlightAware
07:55AM 42.1670 18.6850 134° Southeast 517 595 37,000  Level FlightAware
07:56AM 42.0550 18.8400 134° Southeast 517 595 37,000  Level FlightAware
07:57AM 41.9890 18.9330 134° Southeast 516 594 37,000  Level FlightAware
07:58AM 41.9150 19.0370 134° Southeast 515 593 37,000  Level FlightAware
07:58AM 41.8510 19.1240 135° Southeast 514 592 37,000  Level FlightAware
07:59AM 41.7720 19.2330 134° Southeast 514 592 37,000  Level FlightAware
08:00AM 41.7060 19.3210 135° Southeast 513 590 37,000  Level FlightAware
08:01AM 41.6310 19.4210 135° Southeast 513 590 37,000  Level FlightAware
08:01AM 41.5640 19.5080 136° Southeast 514 592 37,000  Level FlightAware
08:02AM 41.4970 19.5980 135° Southeast 514 592 37,000  Level FlightAware
08:03AM 41.4180 19.7000 136° Southeast 514 592 37,000  Level FlightAware
08:04AM 41.3290 19.8180 135° Southeast 515 593 37,000  Level FlightAware
08:04AM 41.2480 19.9220 136° Southeast 517 595 37,000  Level FlightAware
08:05AM 41.1800 20.0110 135° Southeast 519 597 37,000  Level FlightAware
08:06AM 41.1100 20.1030 135° Southeast 520 598 37,000  Level FlightAware
08:06AM 41.0340 20.2010 136° Southeast 521 600 37,000  Level FlightAware
08:07AM 40.9750 20.2760 136° Southeast 521 600 37,000  Level FlightAware
08:08AM 40.8960 20.3770 136° Southeast 522 601 37,000  Level FlightAware
08:08AM 40.8190 20.4760 136° Southeast 522 601 37,000  Level FlightAware
08:09AM 40.7460 20.5690 136° Southeast 521 600 37,000  Level FlightAware
08:10AM 40.6780 20.6550 136° Southeast 521 600 37,000  Level FlightAware
08:11AM 40.6260 20.7220 136° Southeast 521 600 37,000  Level FlightAware
08:11AM 40.5560 20.8090 137° Southeast 522 601 37,000  Level FlightAware
08:12AM 40.4790 20.9060 136° Southeast 522 601 37,000  Level FlightAware
08:13AM 40.4080 20.9920 137° Southeast 523 602 37,000  Level FlightAware
08:13AM 40.3400 21.0740 137° Southeast 524 603 37,000  Level FlightAware
08:14AM 40.2720 21.1610 136° Southeast 524 603 37,000  Level FlightAware
08:15AM 40.1610 21.2950 137° Southeast 522 601 37,000  Level FlightAware
08:15AM 40.0910 21.3830 136° Southeast 522 601 37,000  Level FlightAware
08:16AM 40.0080 21.4800 138° Southeast 522 601 37,000  Level FlightAware
08:17AM 39.9490 21.5500 138° Southeast 522 601 37,000  Level FlightAware
08:18AM 39.8580 21.6590 137° Southeast 521 600 37,000  Level FlightAware
08:18AM 39.7940 21.7380 137° Southeast 520 598 37,000  Level FlightAware
08:19AM 39.7060 21.8410 138° Southeast 520 598 37,000  Level FlightAware
08:20AM 39.6360 21.9260 137° Southeast 520 598 37,000  Level FlightAware
08:20AM 39.5550 22.0210 138° Southeast 519 597 37,000  Level FlightAware
08:21AM 39.4840 22.1040 138° Southeast 519 597 37,000  Level FlightAware
08:22AM 39.4050 22.1980 137° Southeast 518 596 37,000  Level FlightAware
08:22AM 39.3360 22.2800 137° Southeast 518 596 37,000  Level FlightAware
08:23AM 39.2650 22.3630 138° Southeast 518 596 37,000  Level FlightAware
08:24AM 39.1830 22.4590 138° Southeast 518 596 37,000  Level FlightAware
08:25AM 39.1110 22.5410 139° Southeast 518 596 37,000  Level FlightAware
08:25AM 39.0320 22.6340 138° Southeast 518 596 37,000  Level FlightAware
08:26AM 38.9610 22.7170 138° Southeast 518 596 37,000  Level FlightAware
08:27AM 38.8880 22.8020 138° Southeast 519 597 37,000  Level FlightAware
08:27AM 38.8110 22.8900 138° Southeast 520 598 37,000  Level FlightAware
08:28AM 38.7370 22.9750 138° Southeast 521 600 37,000  Level FlightAware
08:29AM 38.6650 23.0570 138° Southeast 522 601 37,000  Level FlightAware
08:29AM 38.5820 23.1520 138° Southeast 523 602 37,000  Level FlightAware
08:30AM 38.5110 23.2320 139° Southeast 523 602 37,000  Level FlightAware
08:31AM 38.4300 23.3250 138° Southeast 523 602 37,000  Level FlightAware
08:32AM 38.3590 23.4050 139° Southeast 522 601 37,000  Level FlightAware
08:32AM 38.2850 23.4880 139° Southeast 523 602 37,000  Level FlightAware
08:33AM 38.2020 23.5820 138° Southeast 523 602 37,000  Level FlightAware
08:34AM 38.1290 23.6640 139° Southeast 523 602 37,000  Level FlightAware
08:34AM 38.0570 23.7450 138° Southeast 522 601 37,000  Level FlightAware
08:35AM 37.9840 23.8410 134° Southeast 529 609 37,000  Level FlightAware
08:36AM 37.9200 23.9590 124° Southeast 533 613 37,000  Level FlightAware
08:36AM 37.8670 24.0650 122° Southeast 532 612 37,000  Level FlightAware
08:37AM 37.8140 24.1720 122° Southeast 533 613 37,000  Level FlightAware
08:38AM 37.7550 24.2880 123° Southeast 532 612 37,000  Level FlightAware
08:39AM 37.7020 24.3920 123° Southeast 531 611 37,000  Level FlightAware
08:39AM 37.6490 24.4940 123° Southeast 532 612 37,000  Level FlightAware
08:40AM 37.5870 24.6160 123° Southeast 531 611 37,000  Level FlightAware
08:41AM 37.5360 24.7150 123° Southeast 532 612 37,000  Level FlightAware
08:41AM 37.4730 24.8340 124° Southeast 533 613 37,000  Level FlightAware
08:42AM 37.4190 24.9380 123° Southeast 532 612 37,000  Level FlightAware
08:43AM 37.3650 25.0410 123° Southeast 533 613 37,000  Level FlightAware
08:43AM 37.3060 25.1550 123° Southeast 533 613 37,000  Level FlightAware
08:44AM 37.2520 25.2590 123° Southeast 534 615 37,000  Level FlightAware
08:45AM 37.1900 25.3750 124° Southeast 534 615 37,000  Level FlightAware
08:46AM 37.1340 25.4810 124° Southeast 534 615 37,000  Level FlightAware
08:46AM 37.0790 25.5870 123° Southeast 534 615 37,000  Level FlightAware
08:47AM 37.0200 25.6980 124° Southeast 536 617 37,000  Level FlightAware
08:48AM 36.9660 25.7980 124° Southeast 535 616 37,000  Level FlightAware
08:48AM 36.9100 25.9040 123° Southeast 535 616 37,000  Level FlightAware
08:49AM 36.8560 26.0060 123° Southeast 535 616 37,000  Level FlightAware
08:50AM 36.7930 26.1220 124° Southeast 535 616 37,000  Level FlightAware
08:50AM 36.7300 26.2400 124° Southeast 535 616 37,000  Level FlightAware
08:51AM 36.6730 26.3450 124° Southeast 536 617 37,000  Level FlightAware
08:52AM 36.6110 26.4600 124° Southeast 535 616 37,000  Level FlightAware
08:53AM 36.5580 26.5540 125° Southeast 536 617 37,000  Level FlightAware
08:53AM 36.5030 26.6560 124° Southeast 537 618 37,000  Level FlightAware
08:54AM 36.4380 26.7760 124° Southeast 537 618 37,000  Level FlightAware
08:55AM 36.3810 26.8790 124° Southeast 538 619 37,000  Level FlightAware
08:55AM 36.3340 26.9630 125° Southeast 540 621 37,000  Level FlightAware
08:56AM 36.2640 27.0900 124° Southeast 540 621 37,000  Level FlightAware
08:57AM 36.2090 27.1900 124° Southeast 540 621 37,000  Level FlightAware
08:57AM 36.1530 27.2920 124° Southeast 540 621 37,000  Level FlightAware
08:58AM 36.0720 27.4380 124° Southeast 540 621 37,000  Level FlightAware
08:59AM 36.0250 27.5250 124° Southeast 540 621 37,000  Level FlightAware
09:00AM 35.9460 27.6610 126° Southeast 542 624 37,000  Level FlightAware
09:00AM 35.8840 27.7700 125° Southeast 541 623 37,000  Level FlightAware
09:01AM 35.8130 27.8960 125° Southeast 541 623 37,000  Level FlightAware
09:02AM 35.7410 28.0220 125° Southeast 541 623 37,000  Level FlightAware
09:03AM 35.6630 28.1590 125° Southeast 542 624 37,000  Level FlightAware
09:04AM 35.6050 28.2590 125° Southeast 542 624 37,000  Level FlightAware
09:04AM 35.5380 28.3780 125° Southeast 543 625 37,000  Level FlightAware
09:05AM 35.4810 28.4760 126° Southeast 541 623 37,000  Level FlightAware
09:06AM 35.4230 28.5760 125° Southeast 543 625 37,000  Level FlightAware
09:07AM 35.3590 28.6870 125° Southeast 543 625 37,000  Level FlightAware
09:07AM 35.3000 28.7890 125° Southeast 544 626 37,000  Level FlightAware
09:08AM 35.2320 28.9050 126° Southeast 544 626 37,000  Level FlightAware
09:09AM 35.1750 29.0020 126° Southeast 543 625 37,000  Level FlightAware
09:09AM 35.1160 29.1020 126° Southeast 544 626 37,000  Level FlightAware
09:10AM 35.0530 29.2100 125° Southeast 543 625 37,000  Level FlightAware
09:11AM 34.9930 29.3110 126° Southeast 542 624 37,000  Level FlightAware
09:11AM 34.9310 29.4190 125° Southeast 541 623 37,000  Level FlightAware
09:12AM 34.8820 29.5040 125° Southeast 541 623 37,000  Level FlightAware
09:14AM 34.7490 29.7240 126° Southeast 536 617 37,000  Level FlightAware
09:14AM 34.6930 29.8170 126° Southeast 534 615 37,000  Level FlightAware
09:15AM 34.6370 29.9100 126° Southeast 533 613 37,000  Level FlightAware
09:16AM 34.5780 30.0120 125° Southeast 533 613 37,000  Level FlightAware
09:16AM 34.5200 30.1230 122° Southeast 532 612 37,000  Level FlightAware
09:17AM 34.4560 30.2540 121° Southeast 526 605 37,000  Level FlightAware
09:18AM 34.4060 30.3570 120° Southeast 526 605 37,000  Level FlightAware
09:18AM 34.3520 30.4690 120° Southeast 523 602 37,000  Level FlightAware
09:19AM 34.3020 30.5730 120° Southeast 522 601 37,000  Level FlightAware
09:20AM 34.2520 30.6780 120° Southeast 521 600 37,000  Level FlightAware
09:21AM 34.1960 30.7920 121° Southeast 521 600 37,000  Level FlightAware
09:21AM 34.1510 30.8850 120° Southeast 521 600 37,000  Level FlightAware
09:22AM 34.1020 30.9860 120° Southeast 522 601 37,000  Level FlightAware
09:23AM 34.0460 31.1030 120° Southeast 522 601 37,000  Level FlightAware
09:23AM 33.9960 31.2040 121° Southeast 523 602 37,000  Level FlightAware
09:24AM 33.9390 31.3200 121° Southeast 523 602 37,000  Level FlightAware
09:25AM 33.8890 31.4210 121° Southeast 523 602 37,000  Level FlightAware
09:25AM 33.8320 31.5350 121° Southeast 525 604 37,000  Level FlightAware
09:26AM 33.7810 31.6380 121° Southeast 528 608 37,000  Level FlightAware
09:27AM 33.7360 31.7290 121° Southeast 529 609 37,000  Level FlightAware
09:28AM 33.6750 31.8520 121° Southeast 529 609 37,000  Level FlightAware
09:29AM 33.5460 32.1090 121° Southeast 530 610 37,000  Level FlightAware
09:31AM 33.4510 32.2980 121° Southeast 529 609 37,000  Level FlightAware
09:31AM 33.3930 32.4100 122° Southeast 528 608 37,000 -960 Level FlightAware
09:32AM 33.3420 32.5140 120° Southeast 538 619 35,700 -1,500 Descending FlightAware
09:33AM 33.2900 32.6140 122° Southeast 535 616 35,000 -1,200 Descending FlightAware
09:33AM 33.2340 32.7250 121° Southeast 528 608 34,100 -1,740 Descending FlightAware
09:34AM 33.1880 32.8140 122° Southeast 521 600 32,700 -1,800 Descending FlightAware
09:35AM 33.1050 32.9750 122° Southeast 500 575 31,000 -1,020 Descending FlightAware
09:36AM 33.0610 33.0600 122° Southeast 500 575 31,000  Level FlightAware
09:36AM 33.0100 33.1610 121° Southeast 508 585 31,000 -720 Level FlightAware
09:37AM 32.9600 33.2560 122° Southeast 492 566 30,000 -720 Descending FlightAware
09:38AM 32.9110 33.3520 121° Southeast 492 566 30,000 -1,380 Level FlightAware
09:39AM 32.8670 33.4540 117° Southeast 434 499 28,000 -2,280 Descending FlightAware
09:39AM 32.8550 33.5490 99° East 421 484 26,800 -1,860 Descending FlightAware
09:40AM 32.8430 33.6530 98° East 412 474 25,400 -1,800 Descending FlightAware
09:41AM 32.8330 33.7450 97° East 404 465 24,300 -1,680 Descending FlightAware
09:41AM 32.8230 33.8320 98° East 396 456 23,200 -1,740 Descending FlightAware
09:42AM 32.8020 33.9250 105° East 394 453 21,900 -1,740 Descending FlightAware
09:42AM 32.7720 33.9620 134° Southeast 388 447 21,200 -1,800 Descending FlightAware
09:43AM 32.7450 33.9760 156° South 381 438 20,700 -1,680 Descending FlightAware
09:44AM 32.6610 33.9820 177° South 362 417 19,400 -1,680 Descending FlightAware
09:44AM 32.6000 33.9850 178° South 360 414 18,200 -1,920 Descending FlightAware
09:45AM 32.5390 34.0010 168° South 362 417 17,000 -2,040 Descending FlightAware
09:45AM 32.5220 34.0240 131° Southeast 359 413 16,500 -2,040 Descending FlightAware
09:45AM 32.5130 34.0490 113° Southeast 351 404 16,000 -1,680 Descending FlightAware
09:46AM 32.4990 34.1230 103° East 349 402 15,000 -1,500 Descending FlightAware
09:47AM 32.4560 34.1940 126° Southeast 345 397 13,900 -1,440 Descending FlightAware
09:47AM 32.4110 34.2470 135° Southeast 337 388 13,000 -1,380 Descending FlightAware
09:48AM 32.3670 34.3000 134° Southeast 330 380 12,100 -1,320 Descending FlightAware
09:49AM 32.3200 34.3550 135° Southeast 316 364 11,200 -1,080 Descending FlightAware
09:50AM 32.2670 34.4170 135° Southeast 312 359 10,300 -600 Descending FlightAware
09:50AM 32.2320 34.4580 135° Southeast 312 359 10,300  Level FlightAware
09:51AM 32.1970 34.4990 135° Southeast 312 359 10,300  Level FlightAware
09:54AM 32.0156 34.8407 125° Southeast  Level FlightAware Approximate
09:55AM 32.0000 34.8667 125° Southeast  Level FlightAware Approximate
09:56AM 32.0095 34.8769 125° Southeast  Level Estimated
09:57AM 32.0095 34.8769 125° Southeast  Level Estimated
09:58AM 32.0095 34.8769 125° Southeast  Level Estimated
09:59AM 32.0095 34.8769 125° Southeast  Level Estimated
10:00AM 32.0095 34.8769 125° Southeast  Level Estimated
10:01AM 32.0095 34.8769 125° Southeast  Level Estimated